| time (UTC) | temp C | wind direction | speed KPH | gust KPH | rain 1hr cm | rain 24hr cm | rain mn cm | humidity % | barometer mb |
| 20260506233026 | 17 | 209 | 9.7 | 22.5 | 0.00 | 0.00 | 0.00 | 71 | 1019.1 |
| 20260506232506 | 17 | 202 | 6.4 | 22.5 | 0.00 | 0.00 | 0.00 | 71 | 1019.1 |
| 20260506232004 | 17 | 257 | 14.5 | 22.5 | 0.00 | 0.00 | 0.00 | 69 | 1019.1 |
| 20260506231516 | 18 | 218 | 8.0 | 20.9 | 0.00 | 0.00 | 0.00 | 68 | 1019.1 |
| 20260506231005 | 18 | 277 | 8.0 | 20.9 | 0.00 | 0.00 | 0.00 | 69 | 1019.1 |
| 20260506230505 | 18 | 196 | 9.7 | 24.1 | 0.00 | 0.00 | 0.00 | 68 | 1019.1 |
| 20260506230020 | 18 | 192 | 8.0 | 24.1 | 0.00 | 0.00 | 0.00 | 68 | 1019.1 |
| 20260506225507 | 18 | 230 | 11.3 | 24.1 | 0.00 | 0.00 | 0.00 | 68 | 1019.2 |
| 20260506225008 | 18 | 258 | 9.7 | 20.9 | 0.00 | 0.00 | 0.00 | 68 | 1019.3 |
| 20260506224524 | 18 | 227 | 6.4 | 19.3 | 0.00 | 0.00 | 0.00 | 68 | 1019.3 |
| 20260506223508 | 18 | 217 | 9.7 | 22.5 | 0.00 | 0.00 | 0.00 | 67 | 1019.4 |
| 20260506223026 | 18 | 166 | 9.7 | 22.5 | 0.00 | 0.00 | 0.00 | 68 | 1019.4 |
| 20260506222509 | 18 | 200 | 11.3 | 19.3 | 0.00 | 0.00 | 0.00 | 65 | 1019.5 |
| 20260506222009 | 19 | 223 | 8.0 | 22.5 | 0.00 | 0.00 | 0.00 | 66 | 1019.6 |
| 20260506221511 | 19 | 265 | 8.0 | 22.5 | 0.00 | 0.00 | 0.00 | 64 | 1019.7 |
| 20260506221003 | 20 | 171 | 4.8 | 16.1 | 0.00 | 0.00 | 0.00 | 66 | 1019.8 |
| 20260506220508 | 19 | 193 | 6.4 | 16.1 | 0.00 | 0.00 | 0.00 | 66 | 1019.7 |
| 20260506220026 | 19 | 215 | 8.0 | 22.5 | 0.00 | 0.00 | 0.00 | 66 | 1019.8 |
| 20260506215507 | 18 | 247 | 6.4 | 22.5 | 0.00 | 0.00 | 0.00 | 68 | 1019.8 |
| 20260506215007 | 18 | 217 | 4.8 | 24.1 | 0.00 | 0.00 | 0.00 | 70 | 1020.0 |
| 20260506214520 | 17 | 194 | 9.7 | 24.1 | 0.00 | 0.00 | 0.00 | 70 | 1020.0 |
| 20260506214007 | 17 | 254 | 14.5 | 27.4 | 0.00 | 0.00 | 0.00 | 70 | 1020.1 |
| 20260506213511 | 17 | 227 | 16.1 | 27.4 | 0.00 | 0.00 | 0.00 | 70 | 1020.1 |
| 20260506213023 | 17 | 211 | 14.5 | 25.7 | 0.00 | 0.00 | 0.00 | 69 | 1020.1 |
| 20260506212508 | 18 | 225 | 14.5 | 25.7 | 0.00 | 0.00 | 0.00 | 69 | 1019.9 |
| 20260506212009 | 18 | 202 | 9.7 | 27.4 | 0.00 | 0.00 | 0.00 | 69 | 1019.9 |
| 20260506211525 | 18 | 234 | 16.1 | 27.4 | 0.00 | 0.00 | 0.00 | 67 | 1019.9 |
| 20260506211007 | 19 | 212 | 11.3 | 20.9 | 0.00 | 0.00 | 0.00 | 65 | 1020.0 |
| 20260506210504 | 19 | 238 | 6.4 | 17.7 | 0.00 | 0.00 | 0.00 | 64 | 1020.1 |
| 20260506210016 | 20 | 264 | 11.3 | 17.7 | 0.00 | 0.00 | 0.00 | 63 | 1020.0 |
| 20260506205507 | 20 | 78 | 1.6 | 14.5 | 0.00 | 0.00 | 0.00 | 64 | 1020.0 |
| 20260506205008 | 20 | 211 | 6.4 | 14.5 | 0.00 | 0.00 | 0.00 | 63 | 1020.2 |
| 20260506204525 | 20 | 214 | 4.8 | 16.1 | 0.00 | 0.00 | 0.00 | 64 | 1020.1 |
| 20260506204008 | 20 | 300 | 6.4 | 16.1 | 0.00 | 0.00 | 0.00 | 63 | 1020.0 |
| 20260506203508 | 20 | 343 | 3.2 | 12.9 | 0.00 | 0.00 | 0.00 | 63 | 1020.0 |
| 20260506203021 | 20 | 273 | 3.2 | 12.9 | 0.00 | 0.00 | 0.00 | 62 | 1020.1 |
| 20260506202511 | 20 | 360 | 3.2 | 12.9 | 0.00 | 0.00 | 0.00 | 64 | 1020.0 |
| 20260506202004 | 20 | 331 | 3.2 | 12.9 | 0.00 | 0.00 | 0.00 | 62 | 1020.0 |
| 20260506201509 | 20 | 317 | 4.8 | 14.5 | 0.00 | 0.00 | 0.00 | 64 | 1020.1 |
| 20260506201002 | 20 | 352 | 3.2 | 14.5 | 0.00 | 0.00 | 0.00 | 63 | 1020.2 |
| 20260506200502 | 20 | 254 | 6.4 | 14.5 | 0.00 | 0.00 | 0.00 | 64 | 1020.2 |
| 20260506200019 | 20 | 326 | 3.2 | 14.5 | 0.00 | 0.00 | 0.00 | 62 | 1020.3 |
| 20260506195503 | 20 | 340 | 3.2 | 14.5 | 0.00 | 0.00 | 0.00 | 62 | 1020.2 |
| 20260506195009 | 20 | 304 | 6.4 | 14.5 | 0.00 | 0.00 | 0.00 | 62 | 1020.3 |
| 20260506194518 | 20 | 41 | 3.2 | 9.7 | 0.00 | 0.00 | 0.00 | 64 | 1020.2 |
| 20260506194008 | 19 | 247 | 4.8 | 9.7 | 0.00 | 0.00 | 0.00 | 64 | 1020.3 |
| 20260506193508 | 19 | 29 | 1.6 | 11.3 | 0.00 | 0.00 | 0.00 | 65 | 1020.3 |
| 20260506193025 | 19 | 342 | 3.2 | 14.5 | 0.00 | 0.00 | 0.00 | 64 | 1020.4 |
| 20260506192508 | 20 | 254 | 4.8 | 14.5 | 0.00 | 0.00 | 0.00 | 64 | 1020.3 |
| 20260506192007 | 20 | 254 | 1.6 | 11.3 | 0.00 | 0.00 | 0.00 | 64 | 1020.3 |
| 20260506191524 | 20 | 9 | 3.2 | 12.9 | 0.00 | 0.00 | 0.00 | 64 | 1020.3 |
| 20260506191004 | 19 | 229 | 3.2 | 12.9 | 0.00 | 0.00 | 0.00 | 66 | 1020.5 |
| 20260506190505 | 19 | 36 | 3.2 | 14.5 | 0.00 | 0.00 | 0.00 | 64 | 1020.4 |
| 20260506190012 | 19 | 298 | 4.8 | 14.5 | 0.00 | 0.00 | 0.00 | 65 | 1020.5 |
| 20260506185505 | 19 | 294 | 1.6 | 9.7 | 0.00 | 0.00 | 0.00 | 66 | 1020.6 |
| 20260506185004 | 18 | 360 | 4.8 | 16.1 | 0.00 | 0.00 | 0.00 | 66 | 1020.6 |
| 20260506184517 | 18 | 243 | 4.8 | 12.9 | 0.00 | 0.00 | 0.00 | 67 | 1020.6 |
| 20260506184007 | 18 | 11 | 4.8 | 12.9 | 0.00 | 0.00 | 0.00 | 67 | 1020.6 |
| 20260506183505 | 18 | 269 | 4.8 | 12.9 | 0.00 | 0.00 | 0.00 | 68 | 1020.6 |
| 20260506183018 | 18 | 327 | 4.8 | 14.5 | 0.00 | 0.00 | 0.00 | 68 | 1020.6 |
| 20260506182506 | 18 | 282 | 4.8 | 17.7 | 0.00 | 0.00 | 0.00 | 68 | 1020.5 |
| 20260506182013 | 18 | 341 | 6.4 | 19.3 | 0.00 | 0.00 | 0.00 | 67 | 1020.5 |
| 20260506181522 | 18 | 16 | 4.8 | 19.3 | 0.00 | 0.00 | 0.00 | 64 | 1020.4 |
| 20260506180511 | 18 | 319 | 6.4 | 16.1 | 0.00 | 0.00 | 0.00 | 65 | 1020.4 |
| 20260506180012 | 18 | 32 | 8.0 | 14.5 | 0.00 | 0.00 | 0.00 | 64 | 1020.4 |
| 20260506175504 | 18 | 12 | 8.0 | 14.5 | 0.00 | 0.00 | 0.00 | 65 | 1020.4 |
| 20260506175004 | 18 | 5 | 8.0 | 14.5 | 0.00 | 0.00 | 0.00 | 63 | 1020.5 |
| 20260506174513 | 18 | 14 | 4.8 | 14.5 | 0.00 | 0.00 | 0.00 | 65 | 1020.4 |
| 20260506174005 | 18 | 56 | 6.4 | 14.5 | 0.00 | 0.00 | 0.00 | 65 | 1020.3 |
| 20260506173504 | 18 | 5 | 4.8 | 11.3 | 0.00 | 0.00 | 0.00 | 65 | 1020.2 |
| 20260506173019 | 18 | 25 | 4.8 | 11.3 | 0.00 | 0.00 | 0.00 | 65 | 1020.2 |
| 20260506172504 | 18 | 169 | 1.6 | 12.9 | 0.00 | 0.00 | 0.00 | 66 | 1020.2 |
| 20260506172006 | 18 | 295 | 4.8 | 12.9 | 0.00 | 0.00 | 0.00 | 64 | 1020.1 |
| 20260506171522 | 18 | 28 | 3.2 | 8.0 | 0.00 | 0.00 | 0.00 | 65 | 1020.3 |
| 20260506171008 | 17 | 77 | 1.6 | 4.8 | 0.00 | 0.00 | 0.00 | 65 | 1020.3 |
| 20260506170509 | 17 | 140 | 0.0 | 12.9 | 0.00 | 0.00 | 0.00 | 66 | 1020.4 |
| 20260506170023 | 17 | 47 | 3.2 | 12.9 | 0.00 | 0.00 | 0.00 | 66 | 1020.5 |
| 20260506165508 | 17 | 333 | 1.6 | 11.3 | 0.00 | 0.00 | 0.00 | 67 | 1020.4 |
| 20260506165005 | 17 | 40 | 0.0 | 11.3 | 0.00 | 0.00 | 0.00 | 67 | 1020.5 |
| 20260506164514 | 16 | 165 | 1.6 | 6.4 | 0.00 | 0.00 | 0.00 | 69 | 1020.4 |
| 20260506164009 | 16 | 22 | 3.2 | 6.4 | 0.00 | 0.00 | 0.00 | 69 | 1020.5 |
| 20260506163508 | 16 | 285 | 0.0 | 8.0 | 0.00 | 0.00 | 0.00 | 70 | 1020.4 |
| 20260506163026 | 16 | 22 | 1.6 | 11.3 | 0.00 | 0.00 | 0.00 | 69 | 1020.5 |
| 20260506162506 | 16 | 18 | 6.4 | 11.3 | 0.00 | 0.00 | 0.00 | 69 | 1020.6 |
| 20260506162008 | 16 | 123 | 1.6 | 9.7 | 0.00 | 0.00 | 0.00 | 69 | 1020.6 |
| 20260506161522 | 16 | 144 | 3.2 | 12.9 | 0.00 | 0.00 | 0.00 | 70 | 1020.6 |
| 20260506161009 | 15 | 112 | 4.8 | 12.9 | 0.00 | 0.00 | 0.00 | 73 | 1020.6 |
| 20260506160510 | 15 | 161 | 3.2 | 9.7 | 0.00 | 0.00 | 0.00 | 73 | 1020.6 |
| 20260506160023 | 15 | 205 | 3.2 | 9.7 | 0.00 | 0.00 | 0.00 | 74 | 1020.7 |
| 20260506155507 | 15 | 123 | 4.8 | 11.3 | 0.00 | 0.00 | 0.00 | 74 | 1020.7 |
| 20260506154536 | 14 | 82 | 4.8 | 9.7 | 0.00 | 0.00 | 0.00 | 76 | 1020.7 |
| 20260506154019 | 14 | 174 | 4.8 | 11.3 | 0.00 | 0.00 | 0.00 | 76 | 1020.7 |
| 20260506153507 | 14 | 202 | 3.2 | 12.9 | 0.00 | 0.00 | 0.00 | 77 | 1020.6 |
| 20260506153015 | 13 | 82 | 6.4 | 11.3 | 0.00 | 0.00 | 0.00 | 77 | 1020.7 |
| 20260506152506 | 13 | 117 | 4.8 | 11.3 | 0.00 | 0.00 | 0.00 | 78 | 1020.7 |
| 20260506152006 | 13 | 121 | 3.2 | 11.3 | 0.00 | 0.00 | 0.00 | 78 | 1020.7 |
| 20260506151518 | 13 | 114 | 1.6 | 9.7 | 0.00 | 0.00 | 0.00 | 79 | 1020.7 |
| 20260506151008 | 13 | 91 | 3.2 | 9.7 | 0.00 | 0.00 | 0.00 | 79 | 1020.8 |
| 20260506150507 | 13 | 84 | 3.2 | 8.0 | 0.00 | 0.00 | 0.00 | 79 | 1020.8 |
| 20260506150023 | 12 | 110 | 3.2 | 8.0 | 0.00 | 0.00 | 0.00 | 80 | 1020.8 |
| 20260506145006 | 12 | 31 | 1.6 | 6.4 | 0.00 | 0.00 | 0.00 | 82 | 1020.8 |
| 20260506144525 | 12 | 92 | 1.6 | 3.2 | 0.00 | 0.00 | 0.00 | 83 | 1020.9 |
| 20260506143513 | 11 | 295 | 0.0 | 3.2 | 0.00 | 0.00 | 0.00 | 86 | 1020.8 |
| 20260506142506 | 11 | 17 | 0.0 | 3.2 | 0.00 | 0.00 | 0.00 | 88 | 1020.8 |
| 20260506142006 | 10 | 9 | 0.0 | 3.2 | 0.00 | 0.00 | 0.00 | 89 | 1020.8 |
| 20260506141518 | 10 | 80 | 0.0 | 4.8 | 0.00 | 0.00 | 0.00 | 89 | 1020.6 |
| 20260506141008 | 10 | 360 | 0.0 | 4.8 | 0.00 | 0.00 | 0.00 | 90 | 1020.5 |
| 20260506140511 | 10 | 40 | 1.6 | 6.4 | 0.00 | 0.00 | 0.00 | 90 | 1020.6 |
| 20260506140024 | 10 | 22 | 1.6 | 6.4 | 0.00 | 0.00 | 0.00 | 91 | 1020.5 |
| 20260506135507 | 10 | 51 | 3.2 | 6.4 | 0.00 | 0.00 | 0.00 | 92 | 1020.4 |
| 20260506135006 | 10 | 352 | 1.6 | 4.8 | 0.00 | 0.00 | 0.00 | 92 | 1020.4 |
| 20260506134525 | 9 | 5 | 0.0 | 4.8 | 0.00 | 0.00 | 0.00 | 93 | 1020.4 |
| 20260506134009 | 9 | 57 | 1.6 | 4.8 | 0.00 | 0.00 | 0.00 | 93 | 1020.4 |
| 20260506133509 | 9 | 352 | 1.6 | 3.2 | 0.00 | 0.00 | 0.00 | 93 | 1020.3 |
| 20260506133024 | 9 | 84 | 0.0 | 3.2 | 0.00 | 0.00 | 0.00 | 93 | 1020.4 |
| 20260506132509 | 9 | 62 | 0.0 | 3.2 | 0.00 | 0.00 | 0.00 | 92 | 1020.3 |
| 20260506132015 | 9 | 62 | 0.0 | 4.8 | 0.00 | 0.00 | 0.00 | 92 | 1020.2 |
| 20260506131518 | 9 | 62 | 1.6 | 4.8 | 0.00 | 0.00 | 0.00 | 92 | 1020.2 |
| 20260506131008 | 9 | 33 | 0.0 | 6.4 | 0.00 | 0.00 | 0.00 | 92 | 1020.2 |
| 20260506130511 | 9 | 42 | 3.2 | 6.4 | 0.00 | 0.00 | 0.00 | 92 | 1020.1 |
| 20260506130020 | 9 | 44 | 0.0 | 3.2 | 0.00 | 0.00 | 0.00 | 92 | 1020.1 |
| 20260506125505 | 9 | 76 | 0.0 | 3.2 | 0.00 | 0.00 | 0.00 | 92 | 1020.0 |
| 20260506125010 | 9 | 76 | 0.0 | 4.8 | 0.00 | 0.00 | 0.00 | 92 | 1020.0 |
| 20260506124523 | 9 | 51 | 3.2 | 6.4 | 0.00 | 0.00 | 0.00 | 92 | 1019.9 |
| 20260506124009 | 9 | 67 | 0.0 | 6.4 | 0.00 | 0.00 | 0.00 | 91 | 1019.9 |
| 20260506123509 | 9 | 61 | 1.6 | 3.2 | 0.00 | 0.00 | 0.00 | 91 | 1019.8 |
| 20260506123023 | 9 | 19 | 0.0 | 3.2 | 0.00 | 0.00 | 0.00 | 91 | 1019.8 |
| 20260506122511 | 9 | 19 | 0.0 | 3.2 | 0.00 | 0.00 | 0.00 | 91 | 1019.8 |
| 20260506122007 | 10 | 19 | 0.0 | 3.2 | 0.00 | 0.00 | 0.00 | 91 | 1019.8 |
| 20260506121524 | 10 | 19 | 0.0 | 3.2 | 0.00 | 0.00 | 0.00 | 91 | 1019.7 |
| 20260506121010 | 10 | 19 | 0.0 | 3.2 | 0.00 | 0.00 | 0.00 | 91 | 1019.7 |
| 20260506120514 | 10 | 63 | 0.0 | 0.0 | 0.00 | 0.00 | 0.00 | 91 | 1019.7 |
| 20260506120020 | 10 | 63 | 0.0 | 3.2 | 0.00 | 0.00 | 0.00 | 91 | 1019.7 |
| 20260506115507 | 10 | 63 | 0.0 | 3.2 | 0.00 | 0.00 | 0.00 | 92 | 1019.7 |
| 20260506115007 | 10 | 63 | 0.0 | 3.2 | 0.00 | 0.00 | 0.00 | 92 | 1019.7 |
| 20260506114524 | 10 | 63 | 0.0 | 3.2 | 0.00 | 0.00 | 0.00 | 92 | 1019.7 |
| 20260506114006 | 10 | 44 | 0.0 | 1.6 | 0.00 | 0.00 | 0.00 | 92 | 1019.7 |
| 20260506113508 | 10 | 44 | 0.0 | 0.0 | 0.00 | 0.00 | 0.00 | 92 | 1019.7 |
| 20260506113024 | 10 | 44 | 0.0 | 0.0 | 0.00 | 0.00 | 0.00 | 92 | 1019.6 |
| 20260506112004 | 10 | 44 | 0.0 | 3.2 | 0.00 | 0.00 | 0.00 | 93 | 1019.6 |
| 20260506111509 | 10 | 44 | 1.6 | 4.8 | 0.00 | 0.00 | 0.00 | 93 | 1019.6 |
| 20260506111004 | 10 | 87 | 3.2 | 4.8 | 0.00 | 0.00 | 0.00 | 92 | 1019.6 |
| 20260506110504 | 10 | 107 | 0.0 | 1.6 | 0.00 | 0.00 | 0.00 | 93 | 1019.5 |
| 20260506110016 | 10 | 57 | 1.6 | 3.2 | 0.00 | 0.00 | 0.00 | 93 | 1019.5 |
| 20260506105007 | 10 | 33 | 3.2 | 4.8 | 0.00 | 0.00 | 0.00 | 93 | 1019.5 |
| 20260506104520 | 10 | 46 | 3.2 | 3.2 | 0.00 | 0.00 | 0.00 | 93 | 1019.5 |
| 20260506103004 | 10 | 54 | 0.0 | 3.2 | 0.00 | 0.00 | 0.00 | 93 | 1019.5 |
| 20260506102504 | 10 | 54 | 1.6 | 3.2 | 0.00 | 0.00 | 0.00 | 93 | 1019.6 |
| 20260506102004 | 9 | 54 | 0.0 | 3.2 | 0.00 | 0.00 | 0.00 | 93 | 1019.6 |
| 20260506101510 | 9 | 47 | 0.0 | 0.0 | 0.00 | 0.00 | 0.00 | 93 | 1019.6 |
| 20260506101008 | 9 | 47 | 0.0 | 0.0 | 0.00 | 0.00 | 0.00 | 93 | 1019.6 |
| 20260506100504 | 9 | 46 | 0.0 | 3.2 | 0.00 | 0.00 | 0.00 | 93 | 1019.7 |
| 20260506100013 | 9 | 46 | 0.0 | 3.2 | 0.00 | 0.00 | 0.00 | 92 | 1019.7 |
| 20260506095504 | 8 | 59 | 0.0 | 3.2 | 0.00 | 0.00 | 0.00 | 92 | 1019.7 |
| 20260506095005 | 8 | 59 | 0.0 | 3.2 | 0.00 | 0.00 | 0.00 | 92 | 1019.8 |
| 20260506094521 | 8 | 61 | 0.0 | 3.2 | 0.00 | 0.00 | 0.00 | 92 | 1019.8 |
| 20260506094007 | 8 | 61 | 0.0 | 3.2 | 0.00 | 0.00 | 0.00 | 92 | 1019.8 |
| 20260506092507 | 8 | 52 | 0.0 | 3.2 | 0.00 | 0.00 | 0.00 | 91 | 1019.8 |
| 20260506092004 | 8 | 52 | 0.0 | 3.2 | 0.00 | 0.00 | 0.00 | 91 | 1019.7 |
| 20260506091508 | 8 | 52 | 0.0 | 3.2 | 0.00 | 0.00 | 0.00 | 90 | 1019.7 |
| 20260506091003 | 9 | 52 | 0.0 | 3.2 | 0.00 | 0.00 | 0.00 | 90 | 1019.6 |
| 20260506090504 | 9 | 52 | 0.0 | 3.2 | 0.00 | 0.00 | 0.00 | 91 | 1019.7 |
| 20260506090011 | 9 | 52 | 1.6 | 6.4 | 0.00 | 0.00 | 0.00 | 91 | 1019.8 |
| 20260506085505 | 9 | 61 | 1.6 | 6.4 | 0.00 | 0.00 | 0.00 | 91 | 1019.7 |
| 20260506084517 | 9 | 55 | 0.0 | 3.2 | 0.00 | 0.00 | 0.00 | 90 | 1019.6 |
| 20260506083507 | 9 | 32 | 3.2 | 4.8 | 0.00 | 0.00 | 0.00 | 89 | 1019.4 |
| 20260506083019 | 9 | 58 | 1.6 | 3.2 | 0.00 | 0.00 | 0.00 | 89 | 1019.4 |
| 20260506082511 | 10 | 52 | 0.0 | 3.2 | 0.00 | 0.00 | 0.00 | 89 | 1019.4 |
| 20260506081524 | 10 | 52 | 0.0 | 4.8 | 0.00 | 0.00 | 0.00 | 89 | 1019.4 |
| 20260506080504 | 10 | 27 | 0.0 | 3.2 | 0.00 | 0.00 | 0.00 | 88 | 1019.5 |
| 20260506073510 | 11 | 27 | 0.0 | 3.2 | 0.00 | 0.00 | 0.00 | 86 | 1019.5 |
| 20260506073018 | 11 | 27 | 0.0 | 3.2 | 0.00 | 0.00 | 0.00 | 86 | 1019.4 |
| 20260506071524 | 11 | 27 | 1.6 | 3.2 | 0.00 | 0.00 | 0.00 | 86 | 1019.4 |
| 20260506070507 | 11 | 23 | 0.0 | 3.2 | 0.00 | 0.00 | 0.00 | 86 | 1019.3 |
| 20260506061520 | 11 | 336 | 0.0 | 0.0 | 0.00 | 0.00 | 0.00 | 86 | 1019.1 |
| 20260506044525 | 12 | 336 | 0.0 | 3.2 | 0.00 | 0.00 | 0.00 | 85 | 1018.6 |
| 20260506043013 | 12 | 336 | 0.0 | 0.0 | 0.00 | 0.00 | 0.00 | 84 | 1018.6 |
| 20260506042504 | 12 | 336 | 0.0 | 0.0 | 0.00 | 0.00 | 0.00 | 84 | 1018.6 |
| 20260506041518 | 12 | 336 | 0.0 | 0.0 | 0.00 | 0.00 | 0.00 | 84 | 1018.6 |
| 20260506040021 | 12 | 336 | 0.0 | 0.0 | 0.00 | 0.00 | 0.00 | 84 | 1018.5 |
| 20260506035508 | 12 | 336 | 0.0 | 0.0 | 0.00 | 0.00 | 0.00 | 84 | 1018.3 |
| 20260506035008 | 12 | 336 | 0.0 | 0.0 | 0.00 | 0.00 | 0.00 | 84 | 1018.2 |
| 20260506034523 | 12 | 336 | 0.0 | 0.0 | 0.00 | 0.00 | 0.00 | 83 | 1018.1 |
| 20260506034009 | 12 | 336 | 0.0 | 0.0 | 0.00 | 0.00 | 0.00 | 83 | 1018.0 |
| 20260506033508 | 12 | 336 | 0.0 | 0.0 | 0.00 | 0.00 | 0.00 | 83 | 1017.9 |
| 20260506033026 | 12 | 336 | 0.0 | 1.6 | 0.00 | 0.00 | 0.00 | 83 | 1017.8 |
| 20260506032509 | 12 | 336 | 0.0 | 1.6 | 0.00 | 0.00 | 0.00 | 83 | 1017.7 |
| 20260506031513 | 12 | 336 | 0.0 | 3.2 | 0.00 | 0.00 | 0.00 | 82 | 1017.7 |
| 20260506030018 | 12 | 336 | 0.0 | 3.2 | 0.00 | 0.00 | 0.00 | 81 | 1017.4 |
| 20260506024521 | 12 | 261 | 1.6 | 4.8 | 0.00 | 0.00 | 0.00 | 79 | 1017.4 |
| 20260506024010 | 12 | 275 | 0.0 | 6.4 | 0.00 | 0.00 | 0.00 | 79 | 1017.5 |
| 20260506023507 | 13 | 360 | 1.6 | 6.4 | 0.00 | 0.00 | 0.00 | 78 | 1017.5 |
| 20260506023025 | 13 | 285 | 1.6 | 4.8 | 0.00 | 0.00 | 0.00 | 77 | 1017.5 |
| 20260506022508 | 13 | 271 | 1.6 | 4.8 | 0.00 | 0.00 | 0.00 | 76 | 1017.5 |
| 20260506020030 | 15 | 297 | 1.6 | 6.4 | 0.00 | 0.00 | 0.00 | 70 | 1017.4 |
| 20260506013023 | 15 | 275 | 1.6 | 6.4 | 0.00 | 0.00 | 0.00 | 67 | 1017.2 |
| 20260506005003 | 14 | 296 | 3.2 | 11.3 | 0.00 | 0.00 | 0.00 | 74 | 1017.1 |
| 20260506003508 | 14 | 310 | 0.0 | 6.4 | 0.00 | 0.00 | 0.00 | 74 | 1017.1 |
| 20260506003025 | 14 | 258 | 1.6 | 6.4 | 0.00 | 0.00 | 0.00 | 74 | 1017.1 |
| 20260506002011 | 14 | 279 | 1.6 | 9.7 | 0.00 | 0.00 | 0.00 | 75 | 1017.1 |
| 20260506001524 | 14 | 186 | 1.6 | 11.3 | 0.00 | 0.00 | 0.00 | 74 | 1017.0 |
| 20260506000504 | 14 | 277 | 1.6 | 6.4 | 0.00 | 0.00 | 0.00 | 75 | 1016.8 |
| 20260506000010 | 14 | 234 | 1.6 | 11.3 | 0.00 | 0.00 | 0.00 | 76 | 1016.8 |
| 20260505235504 | 14 | 222 | 4.8 | 11.3 | 0.00 | 0.00 | 0.00 | 75 | 1016.8 |